Time,TemperatureF,DewpointF,PressureIn,WindDirection,WindDirectionDegrees,WindSpeedMPH,WindSpeedGustMPH,Humidity,HourlyPrecipIn,Conditions,Clouds,dailyrainin,SoftwareType,DateUTC
2013-05-12 00:03:00,-999.0,-99.9,30.03,East,94,4.0,8.0,87,0.00,,,0.00,,2013-05-12 04:03:00,
2013-05-12 00:12:00,79.0,75.0,30.03,East,94,4.0,8.0,87,0.00,,,0.00,,2013-05-12 04:12:00,
2013-05-12 00:22:00,79.0,75.0,30.03,East,79,5.0,10.0,87,0.00,,,0.00,,2013-05-12 04:22:00,
2013-05-12 00:33:00,79.0,75.0,30.03,East,79,5.0,10.0,87,0.00,,,0.00,,2013-05-12 04:33:00,
2013-05-12 00:43:00,79.0,75.0,30.03,East,94,5.0,10.0,87,0.00,,,0.00,,2013-05-12 04:43:00,
2013-05-12 00:52:00,79.0,75.0,30.03,East,94,5.0,10.0,87,0.00,,,0.00,,2013-05-12 04:52:00,
2013-05-12 01:02:00,79.0,75.0,30.03,ESE,117,7.0,11.0,87,0.00,,,0.00,,2013-05-12 05:02:00,
2013-05-12 01:12:00,79.0,75.0,30.03,ESE,117,7.0,11.0,87,0.00,,,0.00,,2013-05-12 05:12:00,
2013-05-12 01:22:00,79.0,75.0,30.02,ESE,111,7.0,11.0,88,0.00,,,0.00,,2013-05-12 05:22:00,
2013-05-12 01:32:00,79.0,75.0,30.02,ESE,122,8.0,14.0,87,0.00,,,0.00,,2013-05-12 05:32:00,
2013-05-12 01:42:00,79.0,75.0,30.02,ESE,122,8.0,14.0,87,0.00,,,0.00,,2013-05-12 05:42:00,
2013-05-12 01:52:00,79.0,75.0,30.01,ENE,75,7.0,12.0,87,0.00,,,0.00,,2013-05-12 05:52:00,
2013-05-12 02:01:00,79.0,75.0,30.01,East,97,5.0,10.0,88,0.00,,,0.00,,2013-05-12 06:01:00,
2013-05-12 02:11:00,79.0,75.0,30.01,East,97,5.0,10.0,88,0.00,,,0.00,,2013-05-12 06:11:00,
2013-05-12 02:21:00,79.0,75.0,30.01,East,99,6.0,12.0,88,0.00,,,0.00,,2013-05-12 06:21:00,
2013-05-12 02:32:00,79.0,75.0,30.01,East,101,6.0,11.0,88,0.00,,,0.00,,2013-05-12 06:32:00,
2013-05-12 02:42:00,79.0,75.0,30.00,East,93,5.0,11.0,88,0.00,,,0.00,,2013-05-12 06:42:00,
2013-05-12 02:52:00,79.0,75.0,30.00,East,93,5.0,11.0,88,0.00,,,0.00,,2013-05-12 06:52:00,
2013-05-12 03:01:00,79.0,75.0,30.00,SE,146,5.0,11.0,87,0.00,,,0.00,,2013-05-12 07:01:00,
2013-05-12 03:11:00,79.0,75.0,30.00,SE,146,5.0,11.0,87,0.00,,,0.00,,2013-05-12 07:11:00,
2013-05-12 03:22:00,79.0,75.0,30.00,East,101,6.0,11.0,88,0.00,,,0.00,,2013-05-12 07:22:00,
2013-05-12 03:32:00,79.0,75.0,29.99,ESE,118,7.0,11.0,88,0.00,,,0.00,,2013-05-12 07:32:00,
2013-05-12 03:42:00,79.0,75.0,29.99,ESE,118,7.0,11.0,88,0.00,,,0.00,,2013-05-12 07:42:00,
2013-05-12 03:52:00,79.0,75.0,29.99,SE,126,6.0,11.0,88,0.00,,,0.00,,2013-05-12 07:52:00,
2013-05-12 04:02:00,79.0,75.0,29.98,ESE,113,5.0,10.0,88,0.00,,,0.00,,2013-05-12 08:02:00,
2013-05-12 04:11:00,79.0,75.0,29.98,ESE,113,5.0,10.0,88,0.00,,,0.00,,2013-05-12 08:11:00,
2013-05-12 04:21:00,79.0,75.0,29.98,SE,144,6.0,11.0,89,0.00,,,0.00,,2013-05-12 08:21:00,
2013-05-12 04:32:00,79.0,75.0,29.98,ESE,109,6.0,11.0,88,0.00,,,0.00,,2013-05-12 08:32:00,
2013-05-12 04:42:00,79.0,75.0,29.98,ESE,109,6.0,11.0,88,0.00,,,0.00,,2013-05-12 08:42:00,
2013-05-12 04:53:00,79.0,75.0,29.98,SE,142,6.0,11.0,88,0.00,,,0.00,,2013-05-12 08:53:00,
2013-05-12 05:01:00,79.0,75.0,29.98,SE,144,8.0,11.0,88,0.00,,,0.00,,2013-05-12 09:01:00,
2013-05-12 05:11:00,79.0,75.0,29.98,SE,144,8.0,11.0,88,0.00,,,0.00,,2013-05-12 09:11:00,
2013-05-12 05:21:00,79.0,75.0,29.96,SE,146,10.0,16.0,88,0.00,,,0.00,,2013-05-12 09:21:00,
2013-05-12 05:33:00,79.0,75.0,29.96,SSE,158,10.0,17.0,88,0.00,,,0.00,,2013-05-12 09:33:00,
2013-05-12 05:42:00,79.0,75.0,29.96,SSE,158,10.0,17.0,88,0.00,,,0.00,,2013-05-12 09:42:00,
2013-05-12 05:53:00,79.0,75.0,29.96,SSE,167,12.0,17.0,87,0.00,,,0.00,,2013-05-12 09:53:00,
2013-05-12 06:03:00,79.0,75.0,29.96,South,171,10.0,17.0,87,0.00,,,0.00,,2013-05-12 10:03:00,
2013-05-12 06:12:00,79.0,75.0,29.96,South,171,10.0,17.0,87,0.00,,,0.00,,2013-05-12 10:12:00,
2013-05-12 06:23:00,79.0,74.0,29.96,SE,146,12.0,19.0,86,0.00,,,0.00,,2013-05-12 10:23:00,
2013-05-12 06:33:00,79.0,74.0,29.96,South,169,11.0,19.0,86,0.00,,,0.00,,2013-05-12 10:33:00,
2013-05-12 06:42:00,79.0,74.0,29.96,South,169,11.0,19.0,86,0.00,,,0.00,,2013-05-12 10:42:00,
2013-05-12 06:52:00,79.0,74.0,29.96,South,171,11.0,16.0,86,0.00,,,0.00,,2013-05-12 10:52:00,
2013-05-12 07:02:00,79.0,74.0,29.96,SSE,153,9.0,18.0,86,0.00,,,0.00,,2013-05-12 11:02:00,
2013-05-12 07:12:00,79.0,74.0,29.96,SSE,153,9.0,18.0,86,0.00,,,0.00,,2013-05-12 11:12:00,
2013-05-12 07:22:00,79.0,74.0,29.97,SSE,153,12.0,19.0,85,0.00,,,0.00,,2013-05-12 11:22:00,
2013-05-12 07:32:00,79.0,74.0,29.97,SSE,149,12.0,16.0,84,0.00,,,0.00,,2013-05-12 11:32:00,
2013-05-12 07:42:00,80.0,74.0,29.98,SSE,153,13.0,18.0,83,0.00,,,0.00,,2013-05-12 11:42:00,
2013-05-12 07:52:00,80.0,74.0,29.98,SSE,153,13.0,18.0,83,0.00,,,0.00,,2013-05-12 11:52:00,
2013-05-12 08:02:00,80.0,75.0,29.98,SE,143,11.0,18.0,84,0.00,,,0.00,,2013-05-12 12:02:00,
2013-05-12 08:11:00,80.0,74.0,29.98,SSE,163,11.0,18.0,83,0.00,,,0.00,,2013-05-12 12:11:00,
2013-05-12 08:22:00,80.0,74.0,29.98,SSE,163,11.0,18.0,83,0.00,,,0.00,,2013-05-12 12:22:00,
2013-05-12 08:32:00,81.0,75.0,29.98,SSE,168,9.0,17.0,83,0.00,,,0.00,,2013-05-12 12:32:00,
2013-05-12 08:41:00,81.0,75.0,29.98,SSE,168,9.0,17.0,83,0.00,,,0.00,,2013-05-12 12:41:00,
2013-05-12 08:52:00,81.0,75.0,29.98,SSE,167,11.0,17.0,82,0.00,,,0.00,,2013-05-12 12:52:00,
2013-05-12 09:02:00,81.0,75.0,29.98,SSE,167,11.0,17.0,82,0.00,,,0.00,,2013-05-12 13:02:00,
2013-05-12 09:11:00,81.0,75.0,29.98,SSE,167,11.0,17.0,82,0.00,,,0.00,,2013-05-12 13:11:00,
2013-05-12 09:21:00,81.0,74.0,29.98,SE,145,13.0,18.0,80,0.00,,,0.00,,2013-05-12 13:21:00,
2013-05-12 09:32:00,81.0,74.0,29.99,SSE,158,12.0,21.0,80,0.00,,,0.00,,2013-05-12 13:32:00,
2013-05-12 09:42:00,81.0,74.0,29.99,SSE,158,12.0,21.0,80,0.00,,,0.00,,2013-05-12 13:42:00,
2013-05-12 09:52:00,82.0,74.0,30.00,South,173,11.0,17.0,78,0.00,,,0.00,,2013-05-12 13:52:00,
2013-05-12 10:01:00,82.0,74.0,30.01,South,176,10.0,16.0,77,0.00,,,0.00,,2013-05-12 14:01:00,
2013-05-12 10:11:00,82.0,74.0,30.01,South,176,10.0,16.0,77,0.00,,,0.00,,2013-05-12 14:11:00,
2013-05-12 10:21:00,83.0,75.0,30.01,SSE,168,9.0,13.0,76,0.00,,,0.00,,2013-05-12 14:21:00,
2013-05-12 10:32:00,83.0,75.0,30.01,South,169,9.0,14.0,76,0.00,,,0.00,,2013-05-12 14:32:00,
2013-05-12 10:42:00,83.0,75.0,30.02,SSE,153,9.0,14.0,77,0.00,,,0.00,,2013-05-12 14:42:00,
2013-05-12 10:52:00,83.0,75.0,30.02,SSE,153,9.0,14.0,77,0.00,,,0.00,,2013-05-12 14:52:00,
2013-05-12 11:01:00,84.0,76.0,30.02,SSE,158,7.0,11.0,77,0.00,,,0.00,,2013-05-12 15:01:00,
2013-05-12 11:11:00,84.0,76.0,30.02,SSE,158,7.0,11.0,77,0.00,,,0.00,,2013-05-12 15:11:00,
2013-05-12 11:21:00,84.0,75.0,30.02,South,180,9.0,14.0,74,0.00,,,0.00,,2013-05-12 15:21:00,
2013-05-12 11:34:00,85.0,76.0,30.02,SE,144,8.0,13.0,74,0.00,,,0.00,,2013-05-12 15:34:00,
2013-05-12 11:42:00,85.0,76.0,30.02,SE,144,8.0,13.0,74,0.00,,,0.00,,2013-05-12 15:42:00,
2013-05-12 11:53:00,85.0,75.0,30.02,SE,134,8.0,11.0,72,0.00,,,0.00,,2013-05-12 15:53:00,
2013-05-12 12:02:00,86.0,76.0,30.02,South,177,6.0,12.0,72,0.00,,,0.00,,2013-05-12 16:02:00,
2013-05-12 12:13:00,86.0,76.0,30.02,South,177,6.0,12.0,72,0.00,,,0.00,,2013-05-12 16:13:00,
2013-05-12 12:23:00,86.0,76.0,30.02,South,172,6.0,10.0,72,0.00,,,0.00,,2013-05-12 16:23:00,
2013-05-12 12:33:00,86.0,75.0,30.02,SE,142,6.0,12.0,71,0.00,,,0.00,,2013-05-12 16:33:00,
2013-05-12 12:42:00,86.0,75.0,30.02,SE,142,6.0,12.0,71,0.00,,,0.00,,2013-05-12 16:42:00,
2013-05-12 12:53:00,86.0,75.0,30.02,SE,139,5.0,9.0,70,0.00,,,0.00,,2013-05-12 16:53:00,
2013-05-12 13:02:00,87.0,76.0,30.02,SSE,147,4.0,9.0,70,0.00,,,0.00,,2013-05-12 17:02:00,
2013-05-12 13:12:00,87.0,76.0,30.01,SSE,153,5.0,10.0,69,0.00,,,0.00,,2013-05-12 17:12:00,
2013-05-12 13:22:00,87.0,76.0,30.01,SSE,153,5.0,10.0,69,0.00,,,0.00,,2013-05-12 17:22:00,
2013-05-12 13:32:00,87.0,76.0,30.01,SSE,167,3.0,8.0,70,0.00,,,0.00,,2013-05-12 17:32:00,
2013-05-12 13:42:00,87.0,76.0,30.01,SSW,201,4.0,9.0,70,0.00,,,0.00,,2013-05-12 17:42:00,
2013-05-12 13:53:00,87.0,76.0,30.01,SSW,201,4.0,9.0,70,0.00,,,0.00,,2013-05-12 17:53:00,
2013-05-12 14:01:00,86.0,75.0,30.01,South,186,5.0,9.0,70,0.00,,,0.00,,2013-05-12 18:01:00,
2013-05-12 14:12:00,86.0,75.0,30.01,South,186,5.0,9.0,70,0.00,,,0.00,,2013-05-12 18:12:00,
2013-05-12 14:22:00,85.0,75.0,30.01,South,169,5.0,9.0,71,0.00,,,0.00,,2013-05-12 18:22:00,
2013-05-12 14:32:00,85.0,75.0,30.01,South,169,5.0,9.0,71,0.00,,,0.00,,2013-05-12 18:32:00,
2013-05-12 14:42:00,85.0,75.0,30.01,South,169,5.0,9.0,71,0.00,,,0.00,,2013-05-12 18:42:00,
2013-05-12 14:52:00,87.0,76.0,30.00,South,177,0.0,7.0,70,0.00,,,0.00,,2013-05-12 18:52:00,
2013-05-12 15:01:00,87.0,75.0,29.99,SSE,148,5.0,8.0,67,0.00,,,0.00,,2013-05-12 19:01:00,
2013-05-12 15:11:00,87.0,75.0,29.99,SSE,148,5.0,8.0,67,0.00,,,0.00,,2013-05-12 19:11:00,
2013-05-12 15:22:00,87.0,76.0,29.99,South,180,4.0,8.0,70,0.00,,,0.00,,2013-05-12 19:22:00,
2013-05-12 15:32:00,87.0,75.0,29.98,SE,143,3.0,8.0,68,0.00,,,0.00,,2013-05-12 19:32:00,
2013-05-12 15:42:00,86.0,75.0,29.99,SE,136,4.0,6.0,70,0.00,,,0.00,,2013-05-12 19:42:00,
2013-05-12 15:52:00,86.0,75.0,29.99,SE,136,4.0,6.0,70,0.00,,,0.00,,2013-05-12 19:52:00,
2013-05-12 16:02:00,86.0,74.0,29.98,South,169,4.0,6.0,68,0.00,,,0.00,,2013-05-12 20:02:00,
2013-05-12 16:11:00,86.0,75.0,29.98,South,189,0.0,7.0,69,0.00,,,0.00,,2013-05-12 20:11:00,
2013-05-12 16:21:00,86.0,75.0,29.98,South,189,0.0,7.0,69,0.00,,,0.00,,2013-05-12 20:21:00,
2013-05-12 16:32:00,86.0,75.0,29.98,SSW,201,1.0,5.0,69,0.00,,,0.00,,2013-05-12 20:32:00,
2013-05-12 16:42:00,86.0,75.0,29.98,SSW,201,1.0,5.0,69,0.00,,,0.00,,2013-05-12 20:42:00,
2013-05-12 16:52:00,85.0,74.0,29.98,SSW,193,3.0,7.0,70,0.00,,,0.00,,2013-05-12 20:52:00,
2013-05-12 17:01:00,86.0,75.0,29.98,South,185,1.0,6.0,71,0.00,,,0.00,,2013-05-12 21:01:00,
2013-05-12 17:11:00,85.0,75.0,29.98,SSW,202,0.0,6.0,72,0.00,,,0.00,,2013-05-12 21:11:00,
2013-05-12 17:21:00,85.0,75.0,29.98,SSW,202,0.0,6.0,72,0.00,,,0.00,,2013-05-12 21:21:00,
2013-05-12 17:33:00,85.0,75.0,29.97,SSW,192,4.0,6.0,72,0.00,,,0.00,,2013-05-12 21:33:00,
2013-05-12 17:42:00,85.0,75.0,29.97,SSW,192,4.0,6.0,72,0.00,,,0.00,,2013-05-12 21:42:00,
2013-05-12 17:53:00,86.0,75.0,29.97,SSE,163,0.0,5.0,71,0.00,,,0.00,,2013-05-12 21:53:00,
2013-05-12 18:02:00,85.0,75.0,29.97,South,188,3.0,6.0,71,0.00,,,0.00,,2013-05-12 22:02:00,
2013-05-12 18:12:00,84.0,74.0,29.98,SSE,167,0.0,5.0,71,0.00,,,0.00,,2013-05-12 22:12:00,
2013-05-12 18:23:00,84.0,74.0,29.98,SSE,167,0.0,5.0,71,0.00,,,0.00,,2013-05-12 22:23:00,
2013-05-12 18:33:00,84.0,74.0,29.98,SSE,163,1.0,5.0,71,0.00,,,0.00,,2013-05-12 22:33:00,
2013-05-12 18:42:00,84.0,74.0,29.98,SSE,163,1.0,5.0,71,0.00,,,0.00,,2013-05-12 22:42:00,
2013-05-12 18:52:00,83.0,73.0,29.98,SSW,204,0.0,1.0,72,0.00,,,0.00,,2013-05-12 22:52:00,
2013-05-12 19:02:00,83.0,74.0,29.98,SSW,193,0.0,0.0,74,0.00,,,0.00,,2013-05-12 23:02:00,
2013-05-12 19:12:00,82.0,73.0,29.98,SSW,193,0.0,1.0,74,0.00,,,0.00,,2013-05-12 23:12:00,
2013-05-12 19:22:00,82.0,73.0,29.98,SSW,193,0.0,1.0,74,0.00,,,0.00,,2013-05-12 23:22:00,
2013-05-12 19:32:00,82.0,73.0,29.98,SSW,193,0.0,1.0,74,0.00,,,0.00,,2013-05-12 23:32:00,
2013-05-12 19:42:00,82.0,73.0,29.98,SSW,193,0.0,1.0,74,0.00,,,0.00,,2013-05-12 23:42:00,
2013-05-12 19:52:00,82.0,73.0,29.99,SSW,193,0.0,0.0,75,0.00,,,0.00,,2013-05-12 23:52:00,
2013-05-12 20:01:00,82.0,73.0,30.00,SSW,193,0.0,0.0,75,0.00,,,0.00,,2013-05-13 00:01:00,
2013-05-12 20:11:00,82.0,73.0,30.00,SSW,193,0.0,0.0,75,0.00,,,0.00,,2013-05-13 00:11:00,
2013-05-12 20:21:00,83.0,76.0,30.00,North,5,10.0,13.0,80,0.00,,,0.00,,2013-05-13 00:21:00,
2013-05-12 20:32:00,82.0,75.0,30.00,NNE,14,8.0,10.0,80,0.00,,,0.00,,2013-05-13 00:32:00,
2013-05-12 20:42:00,82.0,76.0,30.01,NNE,17,8.0,10.0,82,0.00,,,0.00,,2013-05-13 00:42:00,
2013-05-12 20:52:00,82.0,76.0,30.01,NNE,17,8.0,10.0,82,0.00,,,0.00,,2013-05-13 00:52:00,
2013-05-12 21:01:00,82.0,76.0,30.01,NNE,21,7.0,10.0,83,0.00,,,0.00,,2013-05-13 01:01:00,
2013-05-12 21:11:00,82.0,76.0,30.01,NNE,21,7.0,10.0,83,0.00,,,0.00,,2013-05-13 01:11:00,
2013-05-12 21:22:00,81.0,76.0,30.01,North,351,7.0,8.0,84,0.00,,,0.00,,2013-05-13 01:22:00,
2013-05-12 21:32:00,81.0,76.0,30.02,NNE,19,7.0,9.0,84,0.00,,,0.00,,2013-05-13 01:32:00,
2013-05-12 21:42:00,81.0,76.0,30.02,NNE,19,7.0,9.0,84,0.00,,,0.00,,2013-05-13 01:42:00,
2013-05-12 21:52:00,81.0,76.0,30.02,North,9,7.0,9.0,85,0.00,,,0.00,,2013-05-13 01:52:00,
2013-05-12 22:02:00,81.0,76.0,30.02,NNE,21,7.0,10.0,85,0.00,,,0.00,,2013-05-13 02:02:00,
2013-05-12 22:11:00,81.0,76.0,30.02,NNE,21,7.0,10.0,85,0.00,,,0.00,,2013-05-13 02:11:00,
2013-05-12 22:21:00,81.0,76.0,30.03,North,9,7.0,9.0,86,0.00,,,0.00,,2013-05-13 02:21:00,
2013-05-12 22:32:00,80.0,75.0,30.03,North,349,7.0,8.0,85,0.00,,,0.00,,2013-05-13 02:32:00,
2013-05-12 22:42:00,80.0,75.0,30.03,North,349,7.0,8.0,85,0.00,,,0.00,,2013-05-13 02:42:00,
2013-05-12 22:52:00,80.0,75.0,30.03,NNE,19,7.0,10.0,86,0.00,,,0.00,,2013-05-13 02:52:00,
2013-05-12 23:02:00,80.0,75.0,30.04,NE,44,7.0,9.0,86,0.00,,,0.00,,2013-05-13 03:02:00,
2013-05-12 23:11:00,80.0,75.0,30.04,NE,44,7.0,9.0,86,0.00,,,0.00,,2013-05-13 03:11:00,
2013-05-12 23:21:00,80.0,76.0,30.04,NNE,13,8.0,10.0,87,0.00,,,0.00,,2013-05-13 03:21:00,
2013-05-12 23:32:00,80.0,76.0,30.04,NNE,18,7.0,9.0,87,0.00,,,0.00,,2013-05-13 03:32:00,
2013-05-12 23:42:00,80.0,76.0,30.04,NNE,18,7.0,9.0,87,0.00,,,0.00,,2013-05-13 03:42:00,
2013-05-12 23:53:00,80.0,75.0,30.04,NNE,30,6.0,9.0,86,0.00,,,0.00,,2013-05-13 03:53:00,